COSMOS 1261 DEB, 27796

Orbit data source: Space-Track

COSMOS 1261 DEB, 27796 is space debris in HEO originally from a launch on Tue, 31 Mar 1981 UTC launched from the Plesetsk Missile And Space Complex (PKMTR). Debris objects in space refer to the collection of defunct objects orbiting the Earth. Examples of debris include non-operational satellites, rocket bodies, and fragments generated from explosions, collisions, or faulty payload assembly.

Loading next visibility...
Identifier
27796, 1981-031H
Orbit
HEO
Last TLE update
4 days ago
Origin
Manufacturer
Unknown
Mission
Spacecraft
Bus & Motor
Unknown
Mass
Unknown
Launch date (UTC)
1981-03-31 (44 years ago)
Launch vehicle
Unknown
Launch site
Plesetsk Missile And Space Complex (PKMTR)
Object type
Payload
Rocket body
Debris
Shape & HBR
Unknown
Radar Cross Section
Medium (>0.1 m² and <1 m²)

Expand to show TLE details & history

TLE from 4 days ago
0 COSMOS 1261 DEB
1 27796U 81031H   25182.99433678 -.00001060  00000-0  00000-0 0  9999
2 27796  65.5376  32.2976 6931753  21.7602 357.2623  2.01756609178804
Epoch: 2025-07-01T23:51Z
TLE epoch observation values (Epoch: 2025-07-01T23:51:50.697Z)
Latitude
-0.00009°
Longitude
114.05163°
Altitude
1,986.346 km
Speed
8.958 km/s
True Right ascension
02h 09m 10s
True Declination
0° 00' 00"
Sunlit
Object was in daylight at epoch
Visualization orbit readout
Latitude
52.93725°
Longitude
-103.34622°
Altitude
8,648.677 km
Speed
6.167 km/s
Apparent Right ascension
11h 33m 49s
Apparent Declination
62° 10' 20"
Sunlit
Object is in daylight
Visualization observer readout
Local Sidereal Time
11:44:29
Azimuth
356.722° N
Elevation
67.685°
Doppler factor
1
Orbital elements
Apogee altitude
38,413.933 km
Perigee altitude
1,738.75 km
Semi-major axis
26,454.479 km
Eccentricity
0.69318
Inclination
65.5376°
RAAN
32.2976°
Arg. of periapsis
21.7602°
True anomaly
Unknown
Mean anomaly
357.2623°
Eccentric anomaly
Unknown
Mean motion
0.50442 °/min
Orbital period
713.69 mins
BSTAR
0
Loading maneuver chart data...
Loading SW <> Apogee altitude chart data...
Loading historical data...
Loading historical data...
Loading historical data...
Loading historical data...
Loading historical data...
Loading historical data...
Loading historical data...

COSMOS 1261 DEB Visibility forecast

Observer location: undefined°, undefined°

Span
Click to sort rows by Start time (UTC) header in descending order
Start Az.
Max El. time (UTC)
Max El. Az.
Max El.
End time (UTC)
End Az.
338 mins2025-07-05 23:48:04.497Z356.712° N2025-07-06 00:03:04.497Z68.225° E44.597°2025-07-06 05:26:04.497Z217.18° SW
32 mins2025-07-06 23:16:04.497Z328.322° NNW2025-07-06 23:48:04.497Z57.765° ENE44.381°2025-07-06 23:48:04.497Z57.765° ENE
|